Weather History for El Centro, CA

Change the Weather History Date:

Thursday, December 13, 2012

  Actual Average Record
Temperature  
Mean Temperature 57 °F -  
Max Temperature 64 °F 67 °F 81 °F (2010)
Min Temperature 50 °F 43 °F 35 °F (2007)
Degree Days  
Heating Degree Days 8    
Growing Degree Days 7 (Base 50)    
Moisture  
Dew Point 49 °F    
Average Humidity 81    
Maximum Humidity 100    
Minimum Humidity 56    
Precipitation  
Precipitation 0.00 in - - ()
Sea Level Pressure  
Sea Level Pressure 29.78 in    
Wind  
Wind Speed 7 mph (WNW)    
Max Wind Speed 15 mph    
Max Gust Speed -    
Visibility 10 miles    
Events Rain    
Averages and records for this station are not official NWS values.
T = Trace of Precipitation, MM = Missing Value Source: NWS Daily Summary

Daily Weather History Graph

Daily Weather History Graph

Search for Another Location

Airport:

Trip Planner

Search our weather history database for the weather conditions in past years. The results will help you decide how hot, cold, wet, or windy it might be!

Date:

Astronomy

Dec. 13, 2012 Rise Set
Actual Time 6:36 AM PST 4:37 PM PST
Civil Twilight 6:09 AM PST 5:04 PM PST
Nautical Twilight 5:38 AM PST 5:35 PM PST
Astronomical Twilight 5:08 AM PST 6:05 PM PST
Moon 6:50 AM PST (12/13) 5:23 PM PST (12/13)
Length of Visible Light 10h 55m
Length of Day
10h 00m
New Moon, 0% of the Moon is Illuminated
Dec 13
New Moon
Dec 19
First Quarter
Dec 28
Full
Jan 4
Last Quarter
Jan 11
New

Hourly Weather History & Observations

Time (PST) Temp. Dew Point Humidity Pressure Visibility Wind Dir Wind Speed Gust Speed Precip Events Conditions
12:56 AM 54.0 °F 42.1 °F 64% 29.86 in 10.0 mi South 9.2 mph - N/A   Clear
1:56 AM 53.1 °F 43.0 °F 69% 29.85 in 10.0 mi South 4.6 mph - N/A   Clear
2:56 AM 53.1 °F 44.1 °F 71% 29.85 in 10.0 mi Calm Calm - N/A   Clear
3:56 AM 50.0 °F 42.1 °F 74% 29.83 in 10.0 mi SSE 12.7 mph - N/A   Clear
4:56 AM 50.0 °F 43.0 °F 77% 29.83 in 10.0 mi SE 6.9 mph - N/A   Clear
5:56 AM 54.0 °F 43.0 °F 66% 29.83 in 10.0 mi SSE 9.2 mph - N/A   Scattered Clouds
6:56 AM 54.0 °F 43.0 °F 66% 29.85 in 10.0 mi Calm Calm - N/A   Scattered Clouds
7:56 AM 54.0 °F 44.1 °F 69% 29.84 in 10.0 mi East 8.1 mph - N/A   Scattered Clouds
8:56 AM 61.0 °F 46.0 °F 58% 29.86 in 10.0 mi SSE 6.9 mph - N/A   Partly Cloudy
9:56 AM 63.0 °F 48.0 °F 58% 29.86 in 10.0 mi SE 3.5 mph - N/A   Scattered Clouds
10:56 AM 64.0 °F 48.0 °F 56% 29.84 in 10.0 mi East 5.8 mph - N/A   Scattered Clouds
11:11 AM 64.4 °F 48.2 °F 56% 29.79 in 10.0 mi Calm Calm - 0.00 in Rain Rain
11:56 AM 63.0 °F 53.1 °F 70% 29.82 in 10.0 mi North 4.6 mph - 0.00 in Rain Rain
12:56 PM 60.1 °F 54.0 °F 80% 29.81 in 10.0 mi NW 12.7 mph - 0.00 in Rain Rain
1:18 PM 59.0 °F 53.6 °F 82% 29.75 in 10.0 mi NW 13.8 mph - 0.00 in   Overcast
1:51 PM 57.2 °F 51.8 °F 82% 29.74 in 10.0 mi NNW 12.7 mph - 0.00 in Rain Rain
1:56 PM 57.0 °F 52.0 °F 83% 29.79 in 10.0 mi NNW 15.0 mph - 0.00 in Rain Rain
2:56 PM 55.0 °F 53.1 °F 93% 29.80 in 10.0 mi NW 10.4 mph - N/A Rain Rain
3:56 PM 54.0 °F 53.1 °F 97% 29.78 in 10.0 mi NW 8.1 mph - N/A Rain Rain
4:56 PM 54.0 °F 53.1 °F 97% 29.78 in 10.0 mi West 8.1 mph - N/A Rain Rain
5:56 PM 54.0 °F 51.1 °F 90% 29.75 in 10.0 mi West 11.5 mph - N/A   Overcast
6:03 PM 53.6 °F 51.8 °F 94% 29.70 in 10.0 mi WNW 11.5 mph - N/A   Overcast
6:21 PM 53.6 °F 51.8 °F 94% 29.70 in 10.0 mi WNW 10.4 mph - N/A Rain Light Rain
6:28 PM 53.6 °F 51.8 °F 94% 29.70 in 10.0 mi WNW 11.5 mph - N/A   Overcast
6:56 PM 54.0 °F 52.0 °F 93% 29.75 in 10.0 mi WNW 8.1 mph - N/A   Overcast
7:24 PM 53.6 °F 53.6 °F 100% 29.71 in 10.0 mi NNE 4.6 mph - N/A Rain Light Rain
7:52 PM 53.6 °F 53.6 °F 100% 29.71 in 10.0 mi Calm Calm - N/A Rain Light Rain
7:56 PM 54.0 °F 53.1 °F 97% 29.75 in 10.0 mi NE 3.5 mph - N/A Rain Light Rain
8:10 PM 53.6 °F 51.8 °F 94% 29.69 in 10.0 mi NE 8.1 mph - N/A   Overcast
8:56 PM 53.1 °F 53.1 °F 100% 29.75 in 10.0 mi Calm Calm - N/A   Mostly Cloudy
9:56 PM 53.1 °F 52.0 °F 96% 29.73 in 10.0 mi West 3.5 mph - N/A   Scattered Clouds
10:56 PM 53.1 °F 50.0 °F 89% 29.74 in 10.0 mi SW 9.2 mph - N/A   Scattered Clouds
11:56 PM 51.1 °F 45.0 °F 80% 29.75 in 10.0 mi SW 9.2 mph - N/A   Clear